TimeMDT,TemperatureF,Dew PointF,Humidity,Sea Level PressureIn,VisibilityMPH,Wind Direction,Wind SpeedMPH,Gust SpeedMPH,PrecipitationIn,Events,Conditions,WindDirDegrees,DateUTC
12:53 AM,50.0,39.0,66,29.84,10.0,North,4.6,-,N/A,,Overcast,360,2013-10-03 06:53:00
1:53 AM,50.0,39.9,68,29.82,10.0,Calm,Calm,-,N/A,,Overcast,0,2013-10-03 07:53:00
2:53 AM,50.0,39.0,66,29.81,10.0,NNE,9.2,-,N/A,,Overcast,20,2013-10-03 08:53:00
3:53 AM,50.0,39.9,68,29.81,10.0,NE,9.2,-,N/A,,Overcast,40,2013-10-03 09:53:00
4:26 AM,50.0,41.0,71,29.88,10.0,North,6.9,-,N/A,Thunderstorm,Overcast,10,2013-10-03 10:26:00
4:53 AM,48.0,41.0,77,29.82,10.0,North,11.5,-,N/A,,Overcast,10,2013-10-03 10:53:00
5:53 AM,48.0,41.0,77,29.83,10.0,NNE,11.5,-,N/A,,Overcast,20,2013-10-03 11:53:00
6:53 AM,46.9,42.1,83,29.84,10.0,NNE,11.5,-,N/A,,Overcast,20,2013-10-03 12:53:00
7:53 AM,46.9,43.0,86,29.87,10.0,North,13.8,-,N/A,,Overcast,10,2013-10-03 13:53:00
8:34 AM,48.2,42.8,82,29.89,10.0,NNE,11.5,-,N/A,,Mostly Cloudy,30,2013-10-03 14:34:00
8:53 AM,48.0,43.0,83,29.88,10.0,NNE,16.1,-,N/A,,Overcast,30,2013-10-03 14:53:00
9:53 AM,48.9,43.0,80,29.87,10.0,NNE,15.0,-,N/A,,Overcast,30,2013-10-03 15:53:00
10:53 AM,50.0,44.1,80,29.86,10.0,NNE,15.0,-,N/A,,Overcast,30,2013-10-03 16:53:00
11:53 AM,51.1,44.1,77,29.83,10.0,NE,15.0,-,N/A,,Overcast,50,2013-10-03 17:53:00
12:53 PM,51.1,45.0,80,29.82,10.0,NE,12.7,-,N/A,,Overcast,40,2013-10-03 18:53:00
1:25 PM,48.2,44.6,87,29.86,10.0,NE,15.0,-,N/A,,Overcast,40,2013-10-03 19:25:00
1:53 PM,50.0,45.0,83,29.82,10.0,NE,13.8,-,N/A,,Overcast,50,2013-10-03 19:53:00
2:53 PM,48.9,45.0,86,29.82,10.0,NE,13.8,-,N/A,,Overcast,40,2013-10-03 20:53:00
3:53 PM,48.0,45.0,89,29.82,9.0,NE,17.3,-,N/A,,Overcast,40,2013-10-03 21:53:00
4:41 PM,46.4,44.6,93,29.85,4.0,NNE,15.0,-,N/A,,Overcast,30,2013-10-03 22:41:00
4:53 PM,46.9,45.0,93,29.83,4.0,NNE,16.1,23.0,N/A,,Overcast,30,2013-10-03 22:53:00
5:35 PM,46.4,44.6,93,29.85,2.0,NNE,16.1,24.2,0.00,Rain,Light Rain,30,2013-10-03 23:35:00
5:48 PM,46.4,44.6,93,29.85,1.5,NNE,16.1,24.2,0.00,Rain,Light Rain,30,2013-10-03 23:48:00
5:53 PM,46.9,45.0,93,29.83,1.5,NE,17.3,-,0.00,Rain,Light Rain,40,2013-10-03 23:53:00
6:08 PM,46.4,44.6,93,29.85,1.5,NE,18.4,26.5,0.00,Rain,Light Rain,40,2013-10-04 00:08:00
6:37 PM,46.4,44.6,93,29.86,2.5,NNE,16.1,25.3,0.01,Rain,Light Rain,30,2013-10-04 00:37:00
6:50 PM,46.4,44.6,93,29.86,3.0,NE,18.4,-,0.01,Rain,Light Rain,40,2013-10-04 00:50:00
6:53 PM,46.0,45.0,96,29.85,3.0,NE,19.6,-,0.01,Rain,Light Rain,40,2013-10-04 00:53:00
7:06 PM,46.4,44.6,93,29.87,2.5,NE,15.0,-,0.00,Rain,Light Rain,40,2013-10-04 01:06:00
7:13 PM,46.4,44.6,93,29.87,3.0,NE,18.4,23.0,0.00,Rain,Light Rain,40,2013-10-04 01:13:00
7:25 PM,46.4,44.6,93,29.87,3.0,NE,16.1,-,0.00,Rain,Light Rain,40,2013-10-04 01:25:00
7:53 PM,45.0,44.1,97,29.86,3.0,NE,19.6,25.3,0.01,Rain,Light Rain,40,2013-10-04 01:53:00
8:51 PM,44.6,44.6,100,29.88,2.5,NE,13.8,-,0.00,,Overcast,50,2013-10-04 02:51:00
8:53 PM,45.0,44.1,97,29.86,3.0,NE,16.1,-,0.00,,Overcast,40,2013-10-04 02:53:00
9:21 PM,44.6,44.6,100,29.86,2.5,NE,16.1,-,0.00,Rain,Light Rain,40,2013-10-04 03:21:00
9:33 PM,44.6,44.6,100,29.86,3.0,NE,15.0,-,0.00,,Overcast,50,2013-10-04 03:33:00
10:53 PM,45.0,44.1,97,29.85,4.0,NNE,11.5,-,0.00,Rain,Light Rain,30,2013-10-04 04:53:00
11:09 PM,44.6,44.6,100,29.87,2.0,NNE,12.7,-,0.00,Rain,Light Rain,30,2013-10-04 05:09:00
11:38 PM,44.6,44.6,100,29.84,3.0,NNE,17.3,20.7,0.00,Rain,Light Rain,30,2013-10-04 05:38:00
11:53 PM,45.0,44.1,97,29.82,2.5,NNE,16.1,-,0.00,Rain,Light Rain,30,2013-10-04 05:53:00